When you browse on this site, cookies collect data to enhance your experience and personalize the content and advertising you see.
Visit our Privacy Policy to learn more. By continuing to use the site, you agree to this use of cookies and data.
  • In Latvia
  • List of Countries
  • For 7 days
  • Water Temperature
  • Satellite Maps
  • Weather Map
  • Weather Widgets
  • user-avatar
    Login

    Hourly Weather Mayrhofen

    Today, 25 June, Tuesday

    Time Temperature Precipitation Wind Pressure Humidity
    00:00 +12°C° 0 mm 1 mps 623 mmHg 88%
    01:00 +13°C° 0 mm 2 mps 623 mmHg 87%
    02:00 +13°C° 0 mm 2 mps 623 mmHg 88%
    03:00 +13°C° 0 mm 2 mps 623 mmHg 89%
    04:00 +13°C° 0 mm 2 mps 623 mmHg 90%
    05:00 +14°C° 0 mm 2 mps 624 mmHg 84%
    06:00 +16°C° 0 mm 1 mps 624 mmHg 79%
    07:00 +19°C° 0 mm 1 mps 625 mmHg 69%
    08:00 +21°C° 0 mm 1 mps 626 mmHg 59%
    09:00 +24°C° 0 mm 1 mps 627 mmHg 49%
    10:00 +26°C° 0 mm 1 mps 628 mmHg 39%
    11:00 +27°C° 0 mm 1 mps 628 mmHg 35%
    12:00 +28°C° 0 mm 2 mps 629 mmHg 32%
    13:00 +29°C° 0 mm 2 mps 629 mmHg 28%
    14:00 +28°C° 0 mm 2 mps 629 mmHg 29%
    15:00 +28°C° 0 mm 2 mps 629 mmHg 31%
    16:00 +28°C° 0 mm 3 mps 629 mmHg 32%
    17:00 +26°C° 0 mm 2 mps 628 mmHg 43%
    18:00 +24°C° 0 mm 2 mps 628 mmHg 53%
    19:00 +23°C° 0 mm 1 mps 627 mmHg 64%
    20:00 +20°C° 0 mm 1 mps 627 mmHg 69%
    21:00 +18°C° 0 mm 1 mps 626 mmHg 73%
    22:00 +15°C° 0 mm 1 mps 625 mmHg 77%
    23:00 +14°C° 0 mm 1 mps 625 mmHg 76%

    Tomorrow, 26 June, Wednesday

    Time Temperature Precipitation Wind Pressure Humidity
    00:00 +14°C° 0 mm 1 mps 625 mmHg 74%
    01:00 +13°C° 0 mm 1 mps 625 mmHg 72%
    02:00 +13°C° 0 mm 1 mps 625 mmHg 70%
    03:00 +13°C° 0 mm 1 mps 625 mmHg 67%
    04:00 +13°C° 0 mm 1 mps 625 mmHg 65%
    05:00 +16°C° 0 mm 1 mps 626 mmHg 59%
    06:00 +19°C° 0 mm 1 mps 627 mmHg 53%
    07:00 +22°C° 0 mm 1 mps 628 mmHg 47%
    08:00 +24°C° 0 mm 1 mps 629 mmHg 40%
    09:00 +26°C° 0 mm 1 mps 630 mmHg 34%
    10:00 +28°C° 0 mm 2 mps 630 mmHg 28%
    11:00 +28°C° 0 mm 2 mps 631 mmHg 26%
    12:00 +29°C° 0 mm 2 mps 631 mmHg 24%
    13:00 +30°C° 0 mm 2 mps 631 mmHg 23%
    14:00 +29°C° 0 mm 2 mps 630 mmHg 24%
    15:00 +29°C° 0 mm 2 mps 630 mmHg 25%
    16:00 +29°C° 0 mm 3 mps 630 mmHg 27%
    17:00 +27°C° 0 mm 2 mps 629 mmHg 37%
    18:00 +25°C° 0 mm 2 mps 629 mmHg 48%
    19:00 +24°C° 0 mm 1 mps 628 mmHg 58%
    20:00 +21°C° 0 mm 1 mps 628 mmHg 62%
    21:00 +19°C° 0 mm 1 mps 627 mmHg 67%
    22:00 +16°C° 0 mm 1 mps 626 mmHg 71%
    23:00 +15°C° 0 mm 1 mps 626 mmHg 70%

    Day after tomorrow, 27 June, Thursday

    Time Temperature Precipitation Wind Pressure Humidity
    00:00 +15°C° 0 mm 1 mps 626 mmHg 69%
    01:00 +15°C° 0 mm 1 mps 626 mmHg 68%
    02:00 +14°C° 0 mm 1 mps 625 mmHg 67%
    03:00 +14°C° 0 mm 1 mps 625 mmHg 66%
    04:00 +14°C° 0 mm 1 mps 624 mmHg 65%
    05:00 +16°C° 0 mm 1 mps 625 mmHg 61%
    06:00 +20°C° 0 mm 1 mps 626 mmHg 56%
    07:00 +22°C° 0 mm 1 mps 627 mmHg 52%
    08:00 +24°C° 0 mm 1 mps 628 mmHg 45%
    09:00 +26°C° 0 mm 2 mps 628 mmHg 38%
    10:00 +28°C° 0 mm 2 mps 629 mmHg 32%
    11:00 +28°C° 0 mm 2 mps 629 mmHg 31%
    12:00 +28°C° 0 mm 3 mps 629 mmHg 31%
    13:00 +29°C° 0 mm 4 mps 629 mmHg 30%
    14:00 +28°C° 0 mm 4 mps 628 mmHg 32%
    15:00 +28°C° 0 mm 4 mps 628 mmHg 35%
    16:00 +27°C° 0 mm 4 mps 627 mmHg 37%
    17:00 +25°C° 0.2 mm 3 mps 627 mmHg 50%
    18:00 +22°C° 0.2 mm 3 mps 626 mmHg 62%
    19:00 +20°C° 0.2 mm 2 mps 625 mmHg 75%
    20:00 +18°C° 0.1 mm 2 mps 624 mmHg 80%
    21:00 +17°C° 0.1 mm 2 mps 624 mmHg 85%
    22:00 +15°C° 0.1 mm 1 mps 624 mmHg 90%
    23:00 +14°C° 0 mm 1 mps 623 mmHg 92%

    28 June, Friday

    Time Temperature Precipitation Wind Pressure Humidity
    00:00 +14°C° 0 mm 1 mps 623 mmHg 94%
    01:00 +13°C° 0 mm 1 mps 623 mmHg 95%
    02:00 +13°C° 0 mm 1 mps 623 mmHg 96%
    03:00 +13°C° 0 mm 1 mps 623 mmHg 96%
    04:00 +13°C° 0 mm 1 mps 623 mmHg 97%
    05:00 +14°C° 0 mm 1 mps 623 mmHg 95%
    06:00 +15°C° 0 mm 1 mps 623 mmHg 92%
    07:00 +17°C° 0 mm 2 mps 624 mmHg 90%
    08:00 +18°C° 0 mm 2 mps 624 mmHg 81%
    09:00 +19°C° 0 mm 2 mps 624 mmHg 72%
    10:00 +21°C° 0 mm 2 mps 625 mmHg 63%
    11:00 +23°C° 0 mm 2 mps 625 mmHg 56%
    12:00 +24°C° 0 mm 3 mps 625 mmHg 50%
    13:00 +25°C° 0 mm 3 mps 625 mmHg 43%
    14:00 +24°C° 0 mm 3 mps 625 mmHg 42%
    15:00 +24°C° 0 mm 3 mps 625 mmHg 42%
    16:00 +24°C° 0 mm 3 mps 625 mmHg 41%
    17:00 +21°C° 0 mm 3 mps 624 mmHg 48%
    18:00 +20°C° 0 mm 3 mps 624 mmHg 56%
    19:00 +18°C° 0 mm 2 mps 624 mmHg 63%
    20:00 +16°C° 0 mm 2 mps 623 mmHg 71%
    21:00 +14°C° 0 mm 2 mps 622 mmHg 79%
    22:00 +11°C° 0 mm 1 mps 622 mmHg 86%
    23:00 +11°C° 0 mm 1 mps 622 mmHg 86%

    29 June, Saturday

    Time Temperature Precipitation Wind Pressure Humidity
    00:00 +10°C° 0 mm 1 mps 621 mmHg 86%
    01:00 +10°C° 0 mm 1 mps 621 mmHg 86%
    02:00 +10°C° 0 mm 1 mps 621 mmHg 85%
    03:00 +9°C° 0 mm 1 mps 621 mmHg 84%
    04:00 +8°C° 0 mm 0 mps 620 mmHg 82%
    05:00 +11°C° 0 mm 0 mps 621 mmHg 73%
    06:00 +13°C° 0 mm 0 mps 622 mmHg 63%
    07:00 +16°C° 0 mm 0 mps 623 mmHg 54%
    08:00 +18°C° 0 mm 0 mps 624 mmHg 48%
    09:00 +21°C° 0 mm 1 mps 625 mmHg 42%
    10:00 +23°C° 0 mm 1 mps 625 mmHg 36%
    11:00 +24°C° 0 mm 1 mps 625 mmHg 34%
    12:00 +25°C° 0 mm 1 mps 626 mmHg 31%
    13:00 +26°C° 0 mm 1 mps 626 mmHg 29%
    14:00 +26°C° 0 mm 2 mps 626 mmHg 30%
    15:00 +26°C° 0 mm 2 mps 625 mmHg 31%
    16:00 +26°C° 0 mm 2 mps 625 mmHg 33%
    17:00 +24°C° 0 mm 1 mps 625 mmHg 44%
    18:00 +23°C° 0 mm 1 mps 624 mmHg 55%
    19:00 +21°C° 0 mm 1 mps 624 mmHg 66%
    20:00 +19°C° 0 mm 1 mps 623 mmHg 73%
    21:00 +16°C° 0 mm 1 mps 623 mmHg 80%
    22:00 +14°C° 0 mm 2 mps 622 mmHg 87%
    23:00 +14°C° 0 mm 2 mps 622 mmHg 89%

    30 June, Sunday

    Time Temperature Precipitation Wind Pressure Humidity
    00:00 +14°C° 0 mm 2 mps 622 mmHg 91%
    01:00 +14°C° 0 mm 2 mps 622 mmHg 92%
    02:00 +14°C° 0 mm 2 mps 622 mmHg 91%
    03:00 +14°C° 0 mm 2 mps 622 mmHg 91%
    04:00 +13°C° 0 mm 2 mps 621 mmHg 90%
    05:00 +15°C° 0 mm 1 mps 622 mmHg 83%
    06:00 +18°C° 0 mm 1 mps 623 mmHg 76%
    07:00 +19°C° 0 mm 1 mps 623 mmHg 69%
    08:00 +21°C° 0 mm 1 mps 624 mmHg 59%
    09:00 +24°C° 0 mm 1 mps 625 mmHg 50%
    10:00 +26°C° 0 mm 1 mps 626 mmHg 40%
    11:00 +27°C° 0 mm 1 mps 626 mmHg 36%
    12:00 +28°C° 0 mm 1 mps 626 mmHg 32%
    13:00 +29°C° 0 mm 1 mps 626 mmHg 28%
    14:00 +28°C° 0 mm 1 mps 626 mmHg 29%
    15:00 +28°C° 0 mm 2 mps 626 mmHg 31%
    16:00 +28°C° 0 mm 2 mps 626 mmHg 32%
    17:00 +26°C° 0 mm 2 mps 625 mmHg 42%
    18:00 +24°C° 0 mm 2 mps 625 mmHg 52%
    19:00 +23°C° 0 mm 2 mps 624 mmHg 62%
    20:00 +20°C° 0 mm 1 mps 624 mmHg 67%
    21:00 +18°C° 0 mm 1 mps 623 mmHg 72%
    22:00 +13°C° 0 mm 0 mps 622 mmHg 77%
    23:00 +14°C° 0 mm 1 mps 622 mmHg 77%
    Show more